Location: Orange
(33.2833°S, 149.1000°E)
Time: 10:50:11
(UTC+11:00)

Envisat - Pass Details

Date: 06 December 2021
Orbit: 764 x 766 km, 98.2° (Epoch: 22 January)

Event Time Altitude Azimuth Distance (km) Brightness Sun altitude
Rises 04:00:26 0° 59° (ENE) 3,226 6.4 -18.8°
Reaches altitude 10° 04:03:41 10° 81° (E) 2,309 6.0 -18.3°
Maximum altitude 04:06:28 15° 114° (ESE) 1,991 6.1 -17.9°
Drops below altitude 10° 04:09:17 10° 148° (SSE) 2,324 6.7 -17.5°
Sets 04:12:34 0° 170° (S) 3,260 7.1 -17.0°
